| time (UTC) | temp F | wind direction | speed MPH | gust MPH | rain 1hr in | rain 24hr in | rain mn in | humidity % | barometer mb |
| 20260507225017 | 71 | 315 | 2.0 | 8.0 | 0.00 | 0.00 | 0.00 | 25 | 1016.1 |
| 20260507224016 | 72 | 0 | 2.0 | 7.0 | 0.00 | 0.00 | 0.00 | 25 | 1016.2 |
| 20260507223017 | 71 | 315 | 4.0 | 7.0 | 0.00 | 0.00 | 0.00 | 26 | 1016.8 |
| 20260507222016 | 72 | 315 | 4.0 | 10.0 | 0.00 | 0.00 | 0.00 | 27 | 1017.3 |
| 20260507221036 | 71 | 315 | 4.0 | 10.0 | 0.00 | 0.00 | 0.00 | 27 | 1017.0 |
| 20260507220017 | 71 | 315 | 4.0 | 10.0 | 0.00 | 0.00 | 0.00 | 26 | 1017.6 |
| 20260507215016 | 71 | 315 | 3.0 | 12.0 | 0.00 | 0.00 | 0.00 | 26 | 1017.7 |
| 20260507214017 | 71 | 248 | 3.0 | 7.0 | 0.00 | 0.00 | 0.00 | 25 | 1017.8 |
| 20260507213016 | 71 | 248 | 5.0 | 14.0 | 0.00 | 0.00 | 0.00 | 25 | 1017.5 |
| 20260507212037 | 71 | 270 | 4.0 | 12.0 | 0.00 | 0.00 | 0.00 | 26 | 1017.8 |
| 20260507211018 | 71 | 293 | 2.0 | 4.0 | 0.00 | 0.00 | 0.00 | 24 | 1018.0 |
| 20260507210036 | 71 | 338 | 4.0 | 10.0 | 0.00 | 0.00 | 0.00 | 24 | 1018.2 |
| 20260507205016 | 70 | 315 | 4.0 | 7.0 | 0.00 | 0.00 | 0.00 | 23 | 1017.9 |
| 20260507204016 | 71 | 248 | 2.0 | 4.0 | 0.00 | 0.00 | 0.00 | 23 | 1018.4 |
| 20260507203017 | 71 | 0.0 | 2.0 | 0.00 | 0.00 | 0.00 | 23 | 1018.5 | |
| 20260507202017 | 69 | 315 | 2.0 | 4.0 | 0.00 | 0.00 | 0.00 | 23 | 1018.4 |
| 20260507201016 | 69 | 0 | 3.0 | 5.0 | 0.00 | 0.00 | 0.00 | 24 | 1018.5 |
| 20260507200017 | 69 | 315 | 1.0 | 3.0 | 0.00 | 0.00 | 0.00 | 23 | 1018.6 |
| 20260507195016 | 68 | 315 | 4.0 | 7.0 | 0.00 | 0.00 | 0.00 | 24 | 1018.8 |
| 20260507194017 | 69 | 248 | 3.0 | 8.0 | 0.00 | 0.00 | 0.00 | 25 | 1018.8 |
| 20260507193036 | 69 | 315 | 1.0 | 5.0 | 0.00 | 0.00 | 0.00 | 23 | 1018.8 |
| 20260507192017 | 69 | 225 | 3.0 | 8.0 | 0.00 | 0.00 | 0.00 | 24 | 1019.0 |
| 20260507191016 | 69 | 225 | 4.0 | 10.0 | 0.00 | 0.00 | 0.00 | 24 | 1019.2 |
| 20260507190016 | 69 | 158 | 2.0 | 5.0 | 0.00 | 0.00 | 0.00 | 25 | 1019.3 |
| 20260507185016 | 67 | 270 | 1.0 | 3.0 | 0.00 | 0.00 | 0.00 | 27 | 1019.1 |
| 20260507184017 | 66 | 270 | 1.0 | 2.0 | 0.00 | 0.00 | 0.00 | 27 | 1019.1 |
| 20260507183036 | 66 | 248 | 1.0 | 5.0 | 0.00 | 0.00 | 0.00 | 30 | 1019.3 |
| 20260507182037 | 65 | 135 | 1.0 | 2.0 | 0.00 | 0.00 | 0.00 | 28 | 1019.3 |
| 20260507181016 | 65 | 293 | 2.0 | 5.0 | 0.00 | 0.00 | 0.00 | 28 | 1019.4 |
| 20260507180037 | 65 | 270 | 2.0 | 5.0 | 0.00 | 0.00 | 0.00 | 30 | 1019.1 |
| 20260507175017 | 65 | 248 | 1.0 | 4.0 | 0.00 | 0.00 | 0.00 | 28 | 1019.1 |
| 20260507174037 | 65 | 315 | 2.0 | 6.0 | 0.00 | 0.00 | 0.00 | 28 | 1019.3 |
| 20260507173037 | 65 | 270 | 2.0 | 7.0 | 0.00 | 0.00 | 0.00 | 29 | 1019.5 |
| 20260507172016 | 64 | 45 | 1.0 | 4.0 | 0.00 | 0.00 | 0.00 | 29 | 1019.1 |
| 20260507171017 | 63 | 315 | 2.0 | 5.0 | 0.00 | 0.00 | 0.00 | 31 | 1019.0 |
| 20260507170036 | 62 | 270 | 1.0 | 3.0 | 0.00 | 0.00 | 0.00 | 33 | 1019.4 |
| 20260507165016 | 61 | 338 | 2.0 | 5.0 | 0.00 | 0.00 | 0.00 | 33 | 1019.5 |
| 20260507164036 | 60 | 315 | 1.0 | 3.0 | 0.00 | 0.00 | 0.00 | 35 | 1019.3 |
| 20260507163017 | 59 | 315 | 2.0 | 5.0 | 0.00 | 0.00 | 0.00 | 37 | 1019.0 |
| 20260507162016 | 59 | 0 | 3.0 | 7.0 | 0.00 | 0.00 | 0.00 | 35 | 1019.0 |
| 20260507161017 | 59 | 315 | 1.0 | 3.0 | 0.00 | 0.00 | 0.00 | 35 | 1019.0 |
| 20260507160016 | 59 | 338 | 2.0 | 4.0 | 0.00 | 0.00 | 0.00 | 36 | 1019.4 |
| 20260507155016 | 59 | 315 | 2.0 | 5.0 | 0.00 | 0.00 | 0.00 | 38 | 1019.4 |
| 20260507154017 | 59 | 315 | 3.0 | 6.0 | 0.00 | 0.00 | 0.00 | 36 | 1019.5 |
| 20260507153016 | 60 | 90 | 1.0 | 3.0 | 0.00 | 0.00 | 0.00 | 35 | 1020.0 |
| 20260507152017 | 60 | 0.0 | 2.0 | 0.00 | 0.00 | 0.00 | 36 | 1019.7 | |
| 20260507151017 | 59 | 0.0 | 2.0 | 0.00 | 0.00 | 0.00 | 37 | 1019.9 | |
| 20260507150016 | 57 | 0.0 | 1.0 | 0.00 | 0.00 | 0.00 | 43 | 1019.9 | |
| 20260507145016 | 56 | 90 | 1.0 | 3.0 | 0.00 | 0.00 | 0.00 | 45 | 1020.0 |
| 20260507144016 | 55 | 0.0 | 0.0 | 0.00 | 0.00 | 0.00 | 44 | 1019.4 | |
| 20260507143056 | 54 | 0.0 | 2.0 | 0.00 | 0.00 | 0.00 | 47 | 1020.6 | |
| 20260507142016 | 53 | 0.0 | 2.0 | 0.00 | 0.00 | 0.00 | 48 | 1020.2 | |
| 20260507141017 | 53 | 90 | 1.0 | 3.0 | 0.00 | 0.00 | 0.00 | 48 | 1020.2 |
| 20260507140017 | 52 | 90 | 1.0 | 2.0 | 0.00 | 0.00 | 0.00 | 44 | 1020.3 |
| 20260507135036 | 51 | 0.0 | 2.0 | 0.00 | 0.00 | 0.00 | 46 | 1019.9 | |
| 20260507134017 | 51 | 90 | 2.0 | 3.0 | 0.00 | 0.00 | 0.00 | 47 | 1019.8 |
| 20260507133016 | 51 | 0.0 | 1.0 | 0.00 | 0.00 | 0.00 | 48 | 1019.8 | |
| 20260507132016 | 51 | 0.0 | 0.0 | 0.00 | 0.00 | 0.00 | 44 | 1020.0 | |
| 20260507131016 | 51 | 90 | 1.0 | 2.0 | 0.00 | 0.00 | 0.00 | 43 | 1019.9 |
| 20260507130016 | 52 | 113 | 4.0 | 9.0 | 0.00 | 0.00 | 0.00 | 44 | 1019.8 |
| 20260507125016 | 51 | 68 | 4.0 | 7.0 | 0.00 | 0.00 | 0.00 | 44 | 1020.2 |
| 20260507124016 | 51 | 135 | 5.0 | 8.0 | 0.00 | 0.00 | 0.00 | 47 | 1020.2 |
| 20260507123017 | 53 | 113 | 5.0 | 10.0 | 0.00 | 0.00 | 0.00 | 43 | 1020.1 |
| 20260507122037 | 53 | 90 | 6.0 | 12.0 | 0.00 | 0.00 | 0.00 | 43 | 1019.9 |
| 20260507121016 | 54 | 90 | 10.0 | 17.0 | 0.00 | 0.00 | 0.00 | 39 | 1020.2 |
| 20260507120016 | 53 | 113 | 9.0 | 16.0 | 0.00 | 0.00 | 0.00 | 42 | 1020.0 |
| 20260507115016 | 51 | 90 | 2.0 | 5.0 | 0.00 | 0.00 | 0.00 | 41 | 1020.0 |
| 20260507114036 | 52 | 90 | 1.0 | 3.0 | 0.00 | 0.00 | 0.00 | 40 | 1020.0 |
| 20260507113018 | 52 | 113 | 4.0 | 9.0 | 0.00 | 0.00 | 0.00 | 43 | 1020.2 |
| 20260507112016 | 50 | 113 | 1.0 | 3.0 | 0.00 | 0.00 | 0.00 | 42 | 1019.9 |
| 20260507111016 | 50 | 113 | 2.0 | 3.0 | 0.00 | 0.00 | 0.00 | 42 | 1019.7 |
| 20260507110016 | 50 | 113 | 2.0 | 3.0 | 0.00 | 0.00 | 0.00 | 42 | 1019.7 |
| 20260507105056 | 50 | 113 | 2.0 | 4.0 | 0.00 | 0.00 | 0.00 | 42 | 1019.6 |
| 20260507104016 | 50 | 0.0 | 3.0 | 0.00 | 0.00 | 0.00 | 41 | 1019.8 | |
| 20260507103016 | 51 | 0.0 | 2.0 | 0.00 | 0.00 | 0.00 | 40 | 1019.4 | |
| 20260507102016 | 51 | 113 | 1.0 | 2.0 | 0.00 | 0.00 | 0.00 | 40 | 1019.9 |
| 20260507101016 | 52 | 113 | 2.0 | 6.0 | 0.00 | 0.00 | 0.00 | 40 | 1019.9 |
| 20260507100016 | 52 | 113 | 2.0 | 4.0 | 0.00 | 0.00 | 0.00 | 39 | 1020.2 |
| 20260507095016 | 54 | 113 | 5.0 | 12.0 | 0.00 | 0.00 | 0.00 | 38 | 1020.6 |
| 20260507094016 | 54 | 90 | 2.0 | 11.0 | 0.00 | 0.00 | 0.00 | 35 | 1020.7 |
| 20260507093016 | 52 | 113 | 11.0 | 16.0 | 0.00 | 0.00 | 0.00 | 40 | 1020.5 |
| 20260507092017 | 54 | 135 | 7.0 | 15.0 | 0.00 | 0.00 | 0.00 | 37 | 1020.9 |
| 20260507091016 | 52 | 113 | 11.0 | 15.0 | 0.00 | 0.00 | 0.00 | 38 | 1020.7 |
| 20260507090016 | 53 | 113 | 7.0 | 14.0 | 0.00 | 0.00 | 0.00 | 39 | 1020.8 |
| 20260507085016 | 52 | 113 | 9.0 | 14.0 | 0.00 | 0.00 | 0.00 | 36 | 1020.8 |
| 20260507084017 | 52 | 90 | 6.0 | 15.0 | 0.00 | 0.01 | 0.00 | 38 | 1021.0 |
| 20260507083016 | 51 | 90 | 2.0 | 8.0 | 0.00 | 0.11 | 0.00 | 38 | 1020.9 |
| 20260507082016 | 52 | 135 | 6.0 | 13.0 | 0.00 | 0.15 | 0.00 | 38 | 1020.9 |
| 20260507081016 | 51 | 113 | 8.0 | 14.0 | 0.00 | 0.15 | 0.00 | 39 | 1021.0 |
| 20260507080016 | 53 | 113 | 9.0 | 15.0 | 0.00 | 0.15 | 0.00 | 37 | 1021.1 |
| 20260507075016 | 52 | 113 | 10.0 | 18.0 | 0.00 | 0.15 | 0.00 | 36 | 1021.0 |
| 20260507074038 | 52 | 113 | 10.0 | 15.0 | 0.00 | 0.15 | 0.00 | 37 | 1021.2 |
| 20260507073037 | 52 | 113 | 9.0 | 15.0 | 0.00 | 0.15 | 0.00 | 37 | 1020.9 |
| 20260507072016 | 52 | 113 | 4.0 | 8.0 | 0.00 | 0.15 | 0.00 | 37 | 1021.1 |
| 20260507071016 | 52 | 113 | 2.0 | 8.0 | 0.00 | 0.15 | 0.00 | 37 | 1021.2 |
| 20260507070016 | 52 | 23 | 3.0 | 12.0 | 0.00 | 0.16 | 0.00 | 38 | 1020.8 |
| 20260507065016 | 53 | 113 | 7.0 | 14.0 | 0.00 | 0.16 | 0.00 | 37 | 1021.0 |
| 20260507064016 | 52 | 113 | 5.0 | 13.0 | 0.00 | 0.17 | 0.00 | 37 | 1020.7 |
| 20260507063016 | 53 | 90 | 9.0 | 15.0 | 0.00 | 0.18 | 0.00 | 37 | 1020.7 |
| 20260507062016 | 53 | 113 | 5.0 | 11.0 | 0.00 | 0.19 | 0.00 | 35 | 1020.7 |
| 20260507061017 | 53 | 113 | 8.0 | 16.0 | 0.00 | 0.19 | 0.00 | 35 | 1020.6 |
| 20260507060016 | 52 | 90 | 10.0 | 15.0 | 0.00 | 0.19 | 0.19 | 36 | 1020.3 |
| 20260507055018 | 52 | 90 | 8.0 | 16.0 | 0.00 | 0.19 | 0.19 | 37 | 1020.2 |
| 20260507054017 | 51 | 113 | 10.0 | 15.0 | 0.00 | 0.19 | 0.19 | 40 | 1020.3 |
| 20260507053017 | 52 | 135 | 6.0 | 11.0 | 0.00 | 0.19 | 0.19 | 37 | 1020.2 |
| 20260507052017 | 52 | 113 | 11.0 | 18.0 | 0.00 | 0.19 | 0.19 | 37 | 1020.3 |
| 20260507051017 | 52 | 113 | 10.0 | 16.0 | 0.00 | 0.19 | 0.19 | 38 | 1020.3 |
| 20260507050017 | 52 | 113 | 7.0 | 15.0 | 0.00 | 0.19 | 0.19 | 37 | 1020.0 |
| 20260507045037 | 52 | 113 | 8.0 | 16.0 | 0.00 | 0.19 | 0.19 | 38 | 1020.0 |
| 20260507044017 | 52 | 113 | 5.0 | 13.0 | 0.00 | 0.19 | 0.19 | 36 | 1020.0 |
| 20260507043017 | 53 | 113 | 7.0 | 11.0 | 0.00 | 0.19 | 0.19 | 34 | 1019.9 |
| 20260507042017 | 53 | 113 | 8.0 | 15.0 | 0.00 | 0.19 | 0.19 | 36 | 1019.9 |
| 20260507041017 | 52 | 90 | 7.0 | 13.0 | 0.00 | 0.19 | 0.19 | 36 | 1019.4 |
| 20260507040017 | 52 | 113 | 10.0 | 18.0 | 0.00 | 0.19 | 0.19 | 38 | 1019.4 |
| 20260507035017 | 53 | 113 | 8.0 | 15.0 | 0.00 | 0.19 | 0.19 | 35 | 1019.4 |
| 20260507034018 | 54 | 90 | 10.0 | 17.0 | 0.00 | 0.19 | 0.19 | 36 | 1019.8 |
| 20260507033017 | 53 | 90 | 10.0 | 18.0 | 0.00 | 0.19 | 0.19 | 37 | 1019.3 |
| 20260507032017 | 53 | 113 | 9.0 | 17.0 | 0.00 | 0.19 | 0.19 | 37 | 1019.0 |
| 20260507031037 | 54 | 68 | 8.0 | 14.0 | 0.00 | 0.19 | 0.19 | 34 | 1019.1 |
| 20260507030017 | 54 | 90 | 9.0 | 15.0 | 0.00 | 0.19 | 0.19 | 36 | 1018.3 |
| 20260507025017 | 55 | 90 | 8.0 | 15.0 | 0.00 | 0.19 | 0.19 | 34 | 1018.2 |
| 20260507024017 | 55 | 113 | 7.0 | 12.0 | 0.00 | 0.19 | 0.19 | 33 | 1018.7 |
| 20260507023017 | 56 | 90 | 4.0 | 7.0 | 0.00 | 0.19 | 0.19 | 31 | 1018.6 |
| 20260507022017 | 57 | 113 | 4.0 | 7.0 | 0.00 | 0.19 | 0.19 | 31 | 1018.9 |
| 20260507021017 | 60 | 113 | 1.0 | 4.0 | 0.00 | 0.19 | 0.19 | 28 | 1019.3 |
| 20260507020017 | 61 | 0.0 | 1.0 | 0.00 | 0.19 | 0.19 | 24 | 1019.6 | |
| 20260507015017 | 62 | 0.0 | 1.0 | 0.00 | 0.19 | 0.19 | 24 | 1019.8 | |
| 20260507014017 | 62 | 315 | 1.0 | 3.0 | 0.00 | 0.19 | 0.19 | 25 | 1019.8 |
| 20260507013017 | 62 | 315 | 2.0 | 5.0 | 0.00 | 0.19 | 0.19 | 24 | 1020.2 |
| 20260507012017 | 62 | 23 | 1.0 | 2.0 | 0.00 | 0.19 | 0.19 | 24 | 1020.1 |
| 20260507010017 | 62 | 248 | 2.0 | 4.0 | 0.00 | 0.19 | 0.19 | 24 | 1020.6 |
| 20260507005037 | 62 | 270 | 1.0 | 4.0 | 0.00 | 0.19 | 0.19 | 25 | 1020.6 |
| 20260507004017 | 62 | 270 | 1.0 | 2.0 | 0.00 | 0.19 | 0.19 | 24 | 1020.7 |
| 20260507003037 | 62 | 270 | 2.0 | 5.0 | 0.00 | 0.19 | 0.19 | 26 | 1020.4 |
| 20260507002017 | 61 | 315 | 5.0 | 9.0 | 0.00 | 0.19 | 0.19 | 26 | 1020.2 |
| 20260507001017 | 62 | 248 | 5.0 | 10.0 | 0.00 | 0.19 | 0.19 | 25 | 1020.3 |
| 20260507000016 | 62 | 315 | 1.0 | 5.0 | 0.00 | 0.19 | 0.19 | 25 | 1020.3 |
| 20260506235017 | 61 | 315 | 3.0 | 10.0 | 0.00 | 0.19 | 0.19 | 25 | 1019.9 |
| 20260506234117 | 62 | 270 | 3.0 | 7.0 | 0.00 | 0.19 | 0.19 | 25 | 1020.2 |
| 20260506233017 | 61 | 248 | 3.0 | 7.0 | 0.00 | 0.19 | 0.19 | 26 | 1019.9 |
| 20260506232017 | 60 | 225 | 4.0 | 12.0 | 0.00 | 0.19 | 0.19 | 26 | 1019.7 |
| 20260506231016 | 61 | 293 | 3.0 | 7.0 | 0.00 | 0.19 | 0.19 | 27 | 1020.1 |
| 20260506230016 | 61 | 0 | 5.0 | 12.0 | 0.00 | 0.19 | 0.19 | 26 | 1020.1 |